Погода в Ле-Ке

Гаити     18°12′27″N   73°45′29″W
В апреле 2022 года жителям России запретили посещать сайт meteo.paraplan.net по решению Генеральной прокуратуры. Аудитория сайта уменьшилась в 10 раз. Владельцы сайта не видят смысла в поддержке погодного сервера в таких условиях. Сайт будет закрыт в октябре.
темп.,
°C
ветер,
м/с
пор.,
м/с
влажн.,
%
обл.,
%
осадки,
мм/ч
давл.,
гПа
погр.,
м
30 сентября, пт
пт3023:00+24ссз22880 0.0 101033
02:00+23с11874 0.0 100931
05:00+23с11890 0.2 100819
08:00+25ссв11834 0.3 1010135
11:00+29юв336528 0.0 10101088
14:00+29юв436489 0.1 10091067
17:00+28ююв326890 0.3 1008859
20:00+25вюв128020 0.3 1009115
1 октября, сб
сб123:00+24всв118317 0.3 1011115
02:00+24всв128619 0.9 1009125
05:00+24в228441 0.1 1010130
08:00+26вюв248248 0.6 1012285
11:00+28юв567024 0.9 10131080
14:00+29юв566719 1.4 10111181
17:00+27вюв447427 0.6 1011833
20:00+25в138699 2.3 1013122
2 октября, вс
вс223:00+25вюв248420 0.5 1014160
02:00+25вюв128430 1.1 1013120
05:00+24вюв248683 1.0 1013141
08:00+26в248315 1.4 1014271
11:00+28юв457278 1.8 1016957
14:00+28юв5672100 4.2 1015946
17:00+27юв347693 1.5 1014848
20:00+25в128696 1.9 101591
3 октября, пн
пн323:00+24ссв118955 0.0 101575
02:00+23с229299 0.0 101469
05:00+23св119065 0.0 101473
08:00+25св118157 0.0 1015159
11:00+29юв326112 0.0 1016839
14:00+30юв435888 0.0 1014865
17:00+29юв336499 0.0 1012665
20:00+25ссв118087 0.0 101357
4 октября, вт
вт423:00+24с228024 0.0 101544
02:00+24с228355 0.0 101333
05:00+24с228472 0.0 101232
08:00+26ссз117688 0.0 101393
11:00+30ююв326190 0.0 1014933
14:00+29ююв4366100 1.2 1012997
17:00+28ююв2270100 0.5 1011745
20:00+25ююв1284100 3.8 101272